Location: Unspecified
(0.0000°N, 0.0000°E)
Time: 15:33:25
(UTC+00:00)

Altair - Pass Details

Date: 23 March 2026
Orbit: 1502 x 1682 km, 47.2° (Epoch: 18 April)

Event Time Altitude Azimuth Distance (km) Brightness Sun altitude
Exits shadow 03:51:57 30° 344° (NNW) 2,461 8.4 -33.7°
Maximum altitude 03:56:50 59° 51° (NE) 1,739 7.8 -32.5°
Drops below altitude 10° 04:06:09 10° 128° (SE) 3,781 10.1 -30.1°
Sets 04:09:21 0° 131° (SE) 4,793 10.7 -29.3°
